Content
SEND FEEDBACK

Daily
Averages
Monthly
Summary
South Korea

CHEJU, SOUTH KOREA


Home > Asia > South Korea
Elevation: 79 feet     Latitude: 33 31N     Longitude: 126 32E

WEATHER
 
SELECT A DAY
Number of Records: 161,786;   Date Range: 7/1/96 - 10/19/14
 
SHARE

PRINT THIS DATA

[ ← Previous Day ]
WEATHER ALMANAC - JANUARY 31, 2013
[ Next Day → ]
[ °C ]   °F
Weather ElementAverageHighLow
Temperature52.8 °F60.8 °F (11:00 pm)44.6 °F (4:00 am)
Dewpoint39 °F50 °F (10:00 pm)32 °F (5:00 am)
Humidity60.1 %72 % (9:00 pm)36 % (3:00 pm)
Barometer30.32 in30.39 in (1:00 am)30.21 in (11:00 pm)
Wind Speed5.2 mph17.3 mph (11:00 pm)
Weather ElementAverage
Visibility5.4 mi
Wind DirectionSW (220 °)

Weather ElementTotal
Precipitation---
Heating Degree Days12.3 (Base 65)
Growing Degree Days2.7 (Base 50)
Averaged from 23 records on January 31, 2013
WEATHER CONDITIONS BREAKOUT
WIND DIRECTION BREAKOUT
WEATHER BY HOUR - JANUARY 31, 2013
[ °C ]   °F
Local TimeTemperatureDewpointHumidityBarometerVisibilityWind DirectionWind SpeedGust SpeedPrecipitationEventsConditions
1:00 AM46.4 °F35.6 °F66 %30.39 in6.2 miSSW (200°)5.8 mphMostly Cloudy
2:00 AM48.2 °F35.6 °F62 %30.39 in6.2 miSE (140°)4.6 mphMostly Cloudy
3:00 AM46.4 °F33.8 °F62 %30.39 in6.2 miSouth (180°)2.3 mphMostly Cloudy
4:00 AM44.6 °F33.8 °F66 %30.36 inSouth (180°)5.8 mphClear
5:00 AM44.6 °F32.0 °F61 %30.36 inSouth (180°)6.9 mphClear
6:00 AM46.4 °F33.8 °F62 %30.39 inSouth (170°)8.1 mphClear
7:00 AM44.6 °F33.8 °F66 %30.39 inSE (130°)4.6 mphClear
8:00 AM46.4 °F35.6 °F66 %30.39 inSSE (160°)4.6 mphClear
9:00 AM48.2 °F39.2 °F71 %30.39 inSSE (150°)3.5 mphClear
10:00 AM53.6 °F37.4 °F54 %30.39 inSSW (210°)4.6 mphClear
11:00 AM55.4 °F41.0 °F58 %30.36 inWest (280°)4.6 mphClear
12:00 PM57.2 °F37.4 °F48 %30.36 inWNW (300°)4.6 mphClear
1:00 PM57.2 °F39.2 °F51 %30.33 inWNW (300°)4.6 mphClear
2:00 PM57.2 °F41.0 °F55 %30.30 inWNW (290°)5.8 mphClear
3:00 PM59.0 °F32.0 °F36 %30.30 inWest (270°)5.8 mphClear
4:00 PM57.2 °F39.2 °F51 %30.27 inNorth (10°)3.5 mphClear
5:00 PM57.2 °F42.8 °F59 %30.27 in5.0 miSW (230°)2.3 mphOvercast
6:00 PM57.2 °F39.2 °F51 %30.24 in5.0 miSouth (190°)2.3 mphOvercast
7:00 PM55.4 °F41.0 °F58 %30.24 in5.0 miWNW (300°)4.6 mphOvercast
8:00 PM55.4 °F44.6 °F67 %30.24 in5.0 miSouth (190°)6.9 mphLight Drizzle
9:00 PM57.2 °F48.2 °F72 %30.24 in5.0 miNorth (360°)2.3 mphRainLight Rain
10:00 PM59.0 °F50.0 °F72 %30.24 in5.0 miWNW (300°)3.5 mphRainLight Rain
11:00 PM60.8 °F50.0 °F68 %30.21 in5.0 miNNW (340°)17.3 mphRainLight Rain
Hourly data recorded from RKPC, located miles away from Cheju, South Korea







STORIES FROM OUR PARTNERS